Content
SEND FEEDBACK

Daily
Averages
Monthly
Summary
United States of America

BURLINGTON, NORTH DAKOTA


Home > North America > United States > North Dakota
Elevation: 1679 feet     Latitude: 48 16N     Longitude: 101 17W

WEATHER
 
SELECT A DAY
Number of Records: 202,418;   Date Range: 1/1/95 - 9/28/14
 
SHARE

PRINT THIS DATA

[ ← Previous Day ]
WEATHER ALMANAC - JULY 20, 2014
[ Next Day → ]
[ °C ]   °F
Weather ElementAverageHighLow
Temperature78.1 °F90 °F (1:54 pm)66.9 °F (11:54 pm)
Dewpoint60.1 °F64.9 °F (7:54 pm)53.1 °F (1:54 pm)
Humidity56.5 %87 % (11:54 pm)28 % (1:54 pm)
Barometer29.64 in29.72 in (10:54 pm)29.56 in (2:54 am)
Wind Speed11.7 mph18.4 mph (1:54 pm)
Wind Gust29.9 mph (1:54 pm)
Weather ElementAverage
Visibility9.9 mi
Wind DirectionSSW (209.6 °)

Weather ElementTotal
Precipitation---
Cooling Degree Days13.5 (Base 65)
Growing Degree Days28.5 (Base 50)
Averaged from 24 records on July 20, 2014
WEATHER CONDITIONS BREAKOUT
WIND DIRECTION BREAKOUT
WEATHER BY HOUR - JULY 20, 2014
[ °C ]   °F
Local TimeTemperatureDewpointHumidityBarometerVisibilityWind DirectionWind SpeedGust SpeedPrecipitationEventsConditions
1:54 AM72.0 °F60.1 °F66 %29.58 in10.0 miSouth (180°)12.7 mphClear
2:54 AM71.1 °F60.1 °F68 %29.56 in10.0 miSouth (190°)10.4 mphClear
3:54 AM71.1 °F60.1 °F68 %29.56 in10.0 miSSW (200°)15.0 mph23.0 mphClear
4:54 AM69.1 °F60.1 °F73 %29.56 in10.0 miSW (220°)13.8 mphClear
5:54 AM68.0 °F59.0 °F73 %29.57 in10.0 miSW (220°)13.8 mphClear
6:54 AM68.0 °F59.0 °F73 %29.59 in9.0 miSW (230°)12.7 mph21.9 mphClear
7:54 AM71.1 °F57.0 °F61 %29.59 in9.0 miSW (230°)10.4 mphClear
8:54 AM77.0 °F57.0 °F50 %29.60 in10.0 miWSW (250°)11.5 mphClear
9:54 AM80.1 °F57.0 °F45 %29.61 in10.0 miWSW (250°)15.0 mphClear
10:54 AM82.9 °F57.0 °F41 %29.61 in10.0 miWest (270°)16.1 mphClear
11:54 AM86.0 °F55.9 °F36 %29.62 in10.0 miWSW (250°)16.1 mphClear
12:54 PM88.0 °F55.9 °F34 %29.62 in10.0 miSW (220°)15.0 mph24.2 mphClear
1:54 PM90.0 °F53.1 °F28 %29.63 in10.0 miWest (260°)18.4 mph29.9 mphClear
2:42 PM88.0 °F63.0 °F43 %29.67 in10.0 miNW (310°)17.3 mphClear
2:54 PM89.1 °F60.1 °F38 %29.64 in10.0 miWNW (290°)11.5 mph20.7 mphClear
3:54 PM88.0 °F57.9 °F36 %29.65 in10.0 miWNW (300°)15.0 mph21.9 mphClear
4:54 PM84.9 °F63.0 °F48 %29.67 in10.0 miNW (320°)12.7 mphClear
5:54 PM84.0 °F63.0 °F49 %29.68 in10.0 miNW (320°)11.5 mphClear
6:54 PM82.0 °F64.0 °F54 %29.69 in10.0 miNNW (340°)10.4 mphClear
7:54 PM80.1 °F64.9 °F60 %29.69 in10.0 miNorth (10°)6.9 mphClear
8:54 PM75.9 °F64.9 °F69 %29.70 in10.0 miNE (50°)4.6 mphClear
9:54 PM73.0 °F64.0 °F73 %29.71 in10.0 miENE (60°)4.6 mphClear
10:54 PM68.0 °F63.0 °F84 %29.72 in10.0 miENE (60°)4.6 mphClear
11:54 PM66.9 °F63.0 °F87 %29.72 in10.0 miCalmClear
Hourly data recorded from KMOT, located miles away from Burlington, North Dakota







STORIES FROM OUR PARTNERS